Location: Naloco
(16.5478°S, 37.1017°E)
Time: 02:53:11
(UTC+00:00)

ATLAS 2AS CENTAUR RB - Pass Details

Date: 13 August 2020
Orbit: 270 x 24270 km, 12.2° (Epoch: 23 September)

Event Time Altitude Azimuth Distance (km) Brightness Sun altitude
Rises 16:44:29 0° 272° (W) 4,345 7.5 -20.0°
Reaches altitude 10° 16:49:08 10° 285° (WNW) 2,022 5.4 -21.1°
Maximum altitude 16:52:12 23° 341° (NNW) 809 2.4 -21.9°
Enters shadow 16:52:13 23° 342° (NNW) 807 2.4 -21.9°
